WetterOnline ( https://www.wetteronline.ch )

Wetter aktuell Erzgebirge/Ost

Aktuelles Wetter: Zinnwald (882m)

6-stündlich | Neueste Meldungen
Ortszeit Temperatur Wetter
Do, 18.07. 8:00 15.0° C fast wolkenlos
Do, 18.07. 2:00 13.7° C fast wolkenlos
Mi, 17.07. 20:00 18.1° C leicht bewölkt
Mi, 17.07. 14:00 19.8° C wolkig
Mi, 17.07. 8:00 15.4° C wolkig
Mi, 17.07. 2:00 13.0° C wolkenlos
Di, 16.07. 20:00 19.3° C bewölkt
Di, 16.07. 14:00 20.7° C wolkig
Ortszeit Temperatur Wetter
Do, 18.07. 9:30 16.5° C fast wolkenlos
Do, 18.07. 9:20 16.5° C fast wolkenlos
Do, 18.07. 9:10 17.0° C leicht bewölkt
Do, 18.07. 9:00 16.5° C fast wolkenlos
Do, 18.07. 8:50 16.5° C fast wolkenlos
Do, 18.07. 8:40 16.2° C wolkenlos
Do, 18.07. 8:30 16.0° C fast wolkenlos
Do, 18.07. 8:00 15.0° C fast wolkenlos
Do, 18.07. 7:30 14.2° C wolkenlos
Do, 18.07. 7:00 13.4° C wolkenlos
Do, 18.07. 6:30 12.9° C wolkenlos
Ortszeit Relative Feuchte Sichtweite
Do, 18.07. 8:00 82% 45 km
Do, 18.07. 2:00 82% 60 km
Mi, 17.07. 20:00 63% >70 km
Mi, 17.07. 14:00 49% >70 km
Mi, 17.07. 8:00 71% >70 km
Mi, 17.07. 2:00 81% >70 km
Di, 16.07. 20:00 64% >70 km
Di, 16.07. 14:00 68% >70 km
Ortszeit Relative Feuchte Sichtweite
Do, 18.07. 9:30 73% 35 km
Do, 18.07. 9:20 73% -
Do, 18.07. 9:10 73% -
Do, 18.07. 9:00 76% 45 km
Do, 18.07. 8:50 76% -
Do, 18.07. 8:40 77% -
Do, 18.07. 8:30 79% 45 km
Do, 18.07. 8:00 82% 45 km
Do, 18.07. 7:30 84% 40 km
Do, 18.07. 7:00 87% 35 km
Do, 18.07. 6:30 89% 40 km
Ortszeit Niederschlagsmenge Niederschlagsart
Do, 18.07. 8:00 0.0 l/m2 in 12 Std. -
Do, 18.07. 2:00 0.0 l/m2 in 6 Std. -
Mi, 17.07. 20:00 0.0 l/m2 in 12 Std. -
Mi, 17.07. 14:00 0.0 l/m2 in 6 Std. -
Mi, 17.07. 8:00 0.1 l/m2 in 12 Std. -
Mi, 17.07. 2:00 0.1 l/m2 in 6 Std. Regen
Di, 16.07. 20:00 0.1 l/m2 in 12 Std. -
Di, 16.07. 14:00 0.1 l/m2 in 6 Std. Regen
Ortszeit Niederschlagsmenge Niederschlagsart
Do, 18.07. 9:30 0.0 l/m2 in 30 Min -
Do, 18.07. 9:20 keine Meldung -
Do, 18.07. 9:10 keine Meldung -
Do, 18.07. 9:00 0.0 l/m2 in 1 Std. -
Do, 18.07. 8:50 keine Meldung -
Do, 18.07. 8:40 keine Meldung -
Do, 18.07. 8:30 0.0 l/m2 in 30 Min -
Do, 18.07. 8:00 0.0 l/m2 in 1 Std. -
Do, 18.07. 7:30 0.0 l/m2 in 30 Min -
Do, 18.07. 7:00 0.0 l/m2 in 1 Std. -
Do, 18.07. 6:30 0.0 l/m2 in 30 Min -
Ortszeit Stärke Spitze Richtung
km/h Bft. km/h Grad Sektor
Do, 18.07. 8:00 9 2 19 10° N
Do, 18.07. 2:00 13 3 22 340° N
Mi, 17.07. 20:00 13 3 30 320° NW
Mi, 17.07. 14:00 9 2 43 270° W
Mi, 17.07. 8:00 13 3 24 220° SW
Mi, 17.07. 2:00 13 3 31 250° W
Di, 16.07. 20:00 19 3 37 190° S
Di, 16.07. 14:00 20 4 33 220° SW
Ortszeit Stärke Spitze Richtung
km/h Bft. km/h Grad Sektor
Do, 18.07. 9:30 11 2 18 360° N
Do, 18.07. 9:20 11 2 - 360° N
Do, 18.07. 9:10 9 2 - 40° NO
Do, 18.07. 9:00 7 2 13 40° NO
Do, 18.07. 8:50 7 2 - 40° NO
Do, 18.07. 8:40 7 2 - 40° NO
Do, 18.07. 8:30 7 2 14 40° NO
Do, 18.07. 8:00 9 2 13 10° N
Do, 18.07. 7:30 11 2 14 10° N
Do, 18.07. 7:00 9 2 15 360° N
Do, 18.07. 6:30 11 2 14 350° N
Ortszeit Untergrenze Bedeckung Gattung
total tief tief mittel hoch
Do, 18.07. 8:00 420 m 1/8 1/8 - - -
Do, 18.07. 2:00 2100 m 1/8 1/8 - - -
Mi, 17.07. 20:00 2400 m 2/8 2/8 - - -
Mi, 17.07. 14:00 1470 m 5/8 5/8 - - -
Mi, 17.07. 8:00 5700 m 6/8 6/8 - - -
Mi, 17.07. 2:00 - 0/8 0/8 - - -
Di, 16.07. 20:00 2400 m 8/8 7/8 - - -
Di, 16.07. 14:00 810 m 8/8 3/8 - - -
Ortszeit Bedeckungsgrad in Achtel und Wolkenuntergrenze
Do, 18.07. 9:30 1(10500m)
Do, 18.07. 9:20 1(10500m)
Do, 18.07. 9:10 2
Do, 18.07. 9:00 1(9000m)
Do, 18.07. 8:50 1(9000m)
Do, 18.07. 8:40 keine Wolken
Do, 18.07. 8:30 1(420m)
Do, 18.07. 8:00 1(420m)
Do, 18.07. 7:30 keine Wolken
Do, 18.07. 7:00 keine Wolken
Do, 18.07. 6:30 keine Wolken
Ortszeit Stationsdruck (hPa) Tendenz (hPa in 3 Std.)
Do, 18.07. 8:00 924 + 0,3
Do, 18.07. 2:00 924 + 0,2
Mi, 17.07. 20:00 922 + 0,4
Mi, 17.07. 14:00 921 + 0,6
Mi, 17.07. 8:00 920 + 1,0
Mi, 17.07. 2:00 919 + 0,9
Di, 16.07. 20:00 916 + 0,4
Di, 16.07. 14:00 915 + 0,8
Ortszeit Stationsdruck (hPa) Tendenz (hPa in 3 Std.)
Do, 18.07. 9:30 924 + 0,7
Do, 18.07. 9:20 924 keine Meldung
Do, 18.07. 9:10 924 keine Meldung
Do, 18.07. 9:00 924 + 0,5
Do, 18.07. 8:50 924 keine Meldung
Do, 18.07. 8:40 924 keine Meldung
Do, 18.07. 8:30 924 + 0,5
Do, 18.07. 8:00 924 + 0,3
Do, 18.07. 7:30 924 + 0,2
Do, 18.07. 7:00 924 + 0,2
Do, 18.07. 6:30 924 0,0
Ortszeit Schneehöhe (cm)
Do, 18.07. 8:00 0
Do, 18.07. 2:00 0
Mi, 17.07. 20:00 0
Mi, 17.07. 14:00 0
Mi, 17.07. 8:00 0
Mi, 17.07. 2:00 0
Di, 16.07. 20:00 0
Di, 16.07. 14:00 0
Ortszeit Schneehöhe (cm)
Do, 18.07. 9:30 0
Do, 18.07. 9:20 0
Do, 18.07. 9:10 -
Do, 18.07. 9:00 0
Do, 18.07. 8:50 0
Do, 18.07. 8:40 -
Do, 18.07. 8:30 0
Do, 18.07. 8:00 0
Do, 18.07. 7:30 0
Do, 18.07. 7:00 0
Do, 18.07. 6:30 0
Link zu dieser Seite / Seite empfehlen

Das Wetter in ...